This demonstration page uses our WeatherBlox Daily Observations layout. Learn more.

Left ArrowRight Arrow

39.51506, -84.39828

Hourly Observations for November 3, 2020

Temp ( °F °C ) Dew Point ( °F °C ) Humidity (%) Winds ( mph kmh ) Pressure ( in mb ) Visibility ( mi km ) Precip ( " mm )
12:15 am 00:15 Clear 36 2.3 22 -5.8 55 55 WSW 6 9 30.25 1024 10 16.0934 0 0
12:35 am 00:35 Clear 38 3.2 22 -5.7 52 52 WSW 8 13 30.23 1024 10 16.0934 0 0
12:55 am 00:55 Clear 37 2.8 21 -6 53 53 WSW 8 13 30.24 1024 10 16.0934 0 0
1:15 am 01:15 Clear 37 3 22 -5.7 53 53 WSW 7 11 30.23 1024 10 16.0934 0 0
1:35 am 01:35 Clear 36 2.1 22 -5.8 56 56 WSW 7 11 30.24 1024 10 16.0934 0 0
1:55 am 01:55 Clear 35 1.6 22 -5.8 58 58 WSW 7 11 30.24 1024 10 16.0934 0 0
2:15 am 02:15 Clear 34 0.9 23 -5.2 64 64 WSW 8 13 30.24 1024 10 16.0934 0 0
2:35 am 02:35 Clear 32 -0.2 24 -4.3 74 74 W 8 13 30.26 1025 10 16.0934 0 0
2:55 am 02:55 Clear 31 -0.5 23 -4.8 73 73 W 6 9 30.26 1025 10 16.0934 0 0
3:15 am 03:15 Clear 29 -1.6 24 -4.5 81 81 WSW 6 9 30.25 1024 10 16.0934 0 0
3:35 am 03:35 Clear 31 -0.5 25 -3.8 79 79 WSW 9 15 30.25 1024 10 16.0934 0 0
3:55 am 03:55 Clear 33 0.7 24 -4.6 68 68 WSW 8 13 30.23 1024 10 16.0934 0 0
4:15 am 04:15 Clear 33 0.6 24 -4.7 68 68 W 7 11 30.23 1024 10 16.0934 0 0
4:35 am 04:35 Clear 34 1.1 23 -4.9 65 65 WSW 7 11 30.24 1024 10 16.0934 0 0
4:55 am 04:55 Clear 33 0.8 24 -4.4 69 69 WSW 8 13 30.24 1024 10 16.0934 0 0
5:15 am 05:15 Clear 34 1 24 -4.3 68 68 WSW 8 13 30.24 1024 10 16.0934 0 0
5:35 am 05:35 Clear 34 1 25 -4.1 69 69 WSW 9 15 30.23 1024 10 16.0934 0 0
5:55 am 05:55 Clear 34 1.1 24 -4.3 68 68 WSW 7 11 30.23 1024 10 16.0934 0 0
6:15 am 06:15 Clear 35 1.4 24 -4.2 67 67 WSW 6 9 30.24 1024 10 16.0934 0 0
6:35 am 06:35 Clear 34 1 24 -4.5 67 67 WSW 7 11 30.24 1024 10 16.0934 0 0
6:55 am 06:55 Clear 34 1.2 24 -4.4 67 67 WSW 7 11 30.25 1024 10 16.0934 0 0
7:15 am 07:15 Sunny 34 0.9 24 -4.3 69 69 WSW 6 9 30.25 1024 10 16.0934 0 0
7:35 am 07:35 Sunny 34 1 25 -3.7 71 71 WSW 7 11 30.25 1024 10 16.0934 0 0
7:55 am 07:55 Sunny 36 2.2 27 -2.8 70 70 WSW 7 11 30.26 1025 10 16.0934 0 0
8:15 am 08:15 Sunny 38 3.6 27 -2.7 64 64 WSW 8 13 30.26 1025 10 16.0934 0 0
8:35 am 08:35 Sunny 40 4.6 26 -3.2 57 57 WSW 9 15 30.26 1025 10 16.0934 0 0
8:55 am 08:55 Sunny 42 5.3 27 -3 55 55 WSW 9 15 30.27 1025 10 16.0934 0 0
9:15 am 09:15 Sunny 43 6 27 -3 53 53 WSW 10 17 30.27 1025 10 16.0934 0 0
9:35 am 09:35 Sunny 45 7 28 -2.2 52 52 WSW 12 19 30.26 1025 10 16.0934 0 0
9:55 am 09:55 Sunny 46 8 28 -2.1 49 49 WSW 8 13 30.26 1025 10 16.0934 0 0
10:15 am 10:15 Sunny 47 8.5 29 -1.9 48 48 WSW 8 13 30.26 1025 10 16.0934 0 0
10:35 am 10:35 Sunny 49 9.7 30 -0.9 48 48 WSW 9 15 30.26 1025 10 16.0934 0 0
10:55 am 10:55 Sunny 50 10.1 30 -1.1 46 46 SW 8 13 30.26 1025 10 16.0934 0 0
11:15 am 11:15 Sunny 51 10.8 31 -0.6 46 46 SW 8 13 30.26 1025 10 16.0934 0 0
11:35 am 11:35 Sunny 53 11.5 31 -0.4 44 44 SW 9 15 30.26 1025 10 16.0934 0 0
11:55 am 11:55 Sunny 55 12.5 32 0.2 43 43 SSW 8 13 30.24 1024 10 16.0934 0 0
12:15 pm 12:15 Sunny 55 12.9 32 0.2 42 42 WSW 8 13 30.24 1024 10 16.0934 0 0
12:35 pm 12:35 Sunny 56 13.6 33 0.4 41 41 WSW 9 15 30.23 1024 10 16.0934 0 0
12:55 pm 12:55 Sunny 58 14.7 34 1 40 40 WSW 12 19 30.22 1023 10 16.0934 0 0
1:15 pm 13:15 Sunny 59 15.1 33 0.7 38 38 WSW 10 17 30.22 1023 10 16.0934 0 0
1:35 pm 13:35 Sunny 60 15.7 34 0.9 37 37 SW 8 13 30.2 1023 10 16.0934 0 0
1:55 pm 13:55 Sunny 61 16.2 34 1.1 36 36 W 10 17 30.2 1023 10 16.0934 0 0
2:15 pm 14:15 Sunny 62 16.4 33 0.8 35 35 WSW 10 17 30.19 1022 10 16.0934 0 0
2:35 pm 14:35 Sunny 62 16.8 34 1.2 35 35 SW 12 19 30.19 1022 10 16.0934 0 0
2:55 pm 14:55 Sunny 63 17 34 0.9 34 34 SW 9 15 30.19 1022 10 16.0934 0 0
3:15 pm 15:15 Sunny 63 17.3 35 1.4 34 34 WSW 9 15 30.19 1022 10 16.0934 0 0
3:35 pm 15:35 Sunny 63 17.2 34 1 34 34 WSW 13 20 30.18 1022 10 16.0934 0 0
3:55 pm 15:55 Sunny 63 17.3 35 1.4 34 34 SW 10 17 30.18 1022 10 16.0934 0 0
4:15 pm 16:15 Sunny 63 17.3 34 1.2 34 34 SW 9 15 30.18 1022 10 16.0934 0 0
4:35 pm 16:35 Sunny 63 17.1 34 1 34 34 SW 12 19 30.18 1022 10 16.0934 0 0
4:55 pm 16:55 Sunny 62 16.6 34 1.2 36 36 SW 9 15 30.18 1022 10 16.0934 0 0
5:15 pm 17:15 Sunny 60 15.8 34 1.3 38 38 SW 9 15 30.18 1022 10 16.0934 0 0
5:35 pm 17:35 Clear 58 14.5 34 1.3 41 41 WSW 8 13 30.19 1022 10 16.0934 0 0
5:55 pm 17:55 Clear 53 11.8 35 1.9 51 51 WSW 5 7 30.2 1023 10 16.0934 0 0
6:15 pm 18:15 Clear 52 11.3 35 1.8 52 52 WSW 3 6 30.21 1023 10 16.0934 0 0
6:35 pm 18:35 Clear 49 9.6 38 3.4 66 66 W 3 6 30.22 1023 10 16.0934 0 0
6:55 pm 18:55 Clear 46 7.7 38 3.4 74 74 Calm 30.22 1024 10 16.0934 0 0
7:15 pm 19:15 Clear 46 7.5 38 3.4 75 75 Calm 30.24 1024 10 16.0934 0 0
7:35 pm 19:35 Clear 44 6.8 39 3.8 81 81 Calm 30.24 1024 10 16.0934 0 0
7:55 pm 19:55 Clear 43 6.3 38 3.2 81 81 Calm 30.25 1024 10 16.0934 0 0
8:15 pm 20:15 Clear 42 5.4 37 2.7 83 83 Calm 30.25 1024 10 16.0934 0 0
8:35 pm 20:35 Clear 42 5.4 37 2.8 84 84 W 3 6 30.25 1024 10 16.0934 0 0
8:55 pm 20:55 Clear 40 4.7 37 2.8 88 88 Calm 30.25 1024 10 16.0934 0 0
9:15 pm 21:15 Clear 41 5 38 3.4 90 90 Calm 30.26 1025 10 16.0934 0 0
9:35 pm 21:35 Clear 41 5.1 39 3.9 92 92 Calm 30.26 1025 10 16.0934 0 0
9:55 pm 21:55 Clear 41 4.9 39 3.7 92 92 Calm 30.26 1025 10 16.0934 0 0
10:15 pm 22:15 Clear 39 3.9 36 2.2 89 89 Calm 30.27 1025 10 16.0934 0 0
10:35 pm 22:35 Clear 40 4.7 38 3.6 93 93 Calm 30.27 1025 10 16.0934 0 0
10:55 pm 22:55 Clear 39 4 38 3.4 96 96 Calm 30.27 1025 10 16.0934 0 0
11:15 pm 23:15 Clear 40 4.5 39 3.7 95 95 W 3 6 30.27 1025 10 16.0934 0 0
11:35 pm 23:35 Clear 38 3.5 38 3.1 97 97 Calm 30.28 1025 10 16.0934 0 0
11:55 pm 23:55 Clear 39 3.9 37 2.9 93 93 Calm 30.27 1025 10 16.0934 0 0

Powered by AerisWeather